FW6456 Weather Reports


time (UTC)temp
C
wind
direction
speed
KPH
gust
KPH
rain 1hr
cm
rain 24hr
cm
rain mn
cm
humidity
%
barometer
mb
20260508013924 10 33 0.0 0.0 0.00 0.00 0.00 75 3408.5
20260508013420 11 33 0.0 0.0 0.00 0.00 0.00 74 3408.5
20260508012917 11 33 0.0 0.0 0.00 0.00 0.00 73 3408.5
20260508012414 11 33 0.0 0.0 0.00 0.00 0.00 72 3408.5
20260508011912 11 33 0.0 0.0 0.00 0.00 0.00 71 3408.5
20260508011410 11 33 0.0 0.0 0.00 0.00 0.00 71 3408.3
20260508010907 12 33 0.0 0.0 0.00 0.00 0.00 68 3408.1
20260508010404 12 33 0.0 0.0 0.00 0.00 0.00 67 3408.4
20260508005901 12 33 0.0 0.0 0.00 0.00 0.00 68 3408.2
20260508005357 12 32 0.0 0.0 0.00 0.00 0.00 67 3408.1
20260508004854 13 32 0.0 0.0 0.00 0.00 0.00 65 3408.2
20260508004350 13 33 0.0 0.0 0.00 0.00 0.00 63 3408.0
20260508003847 13 32 0.0 0.0 0.00 0.00 0.00 63 3407.9
20260508003344 13 32 0.0 0.0 0.00 0.00 0.00 64 3408.1
20260508002841 14 32 0.0 0.0 0.00 0.00 0.00 60 3408.1
20260508002338 14 32 0.0 0.0 0.00 0.00 0.00 57 3408.0
20260508001834 15 32 0.0 0.0 0.00 0.00 0.00 57 3407.8
20260508001330 15 32 0.0 0.0 0.00 0.00 0.00 54 3407.9
20260508000826 15 32 0.0 0.0 0.00 0.00 0.00 51 3407.8
20260508000323 16 32 0.0 0.0 0.00 0.00 0.00 51 3407.7
20260507235820 16 32 0.0 0.0 0.00 0.00 0.00 50 3407.9
20260507235317 16 32 0.0 0.0 0.00 0.00 0.00 48 3407.7
20260507234814 16 52 0.0 0.0 0.00 0.00 0.00 46 3407.6
20260507234311 16 53 0.0 0.0 0.00 0.00 0.00 44 3407.5
20260507233807 17 74 1.6 3.2 0.00 0.00 0.00 43 3407.8
20260507233305 17 37 0.0 3.2 0.00 0.00 0.00 44 3407.6
20260507232803 17 70 0.0 0.0 0.00 0.00 0.00 43 3407.7
20260507232259 17 353 3.2 4.8 0.00 0.00 0.00 42 3407.7
20260507231755 17 38 0.0 3.2 0.00 0.00 0.00 42 3407.6
20260507231253 18 44 1.6 3.2 0.00 0.00 0.00 42 3407.8
20260507230749 18 41 1.6 3.2 0.00 0.00 0.00 40 3407.8
20260507230247 19 56 0.0 0.0 0.00 0.00 0.00 42 3407.8
20260507225746 18 302 3.2 4.8 0.00 0.00 0.00 40 3407.8
20260507225242 19 337 4.8 4.8 0.00 0.00 0.00 38 3407.8
20260507224738 18 26 1.6 3.2 0.00 0.00 0.00 41 3407.7
20260507224235 19 24 1.6 3.2 0.00 0.00 0.00 40 3408.0
20260507223731 19 302 1.6 3.2 0.00 0.00 0.00 39 3407.8
20260507223228 18 14 1.6 3.2 0.00 0.00 0.00 40 3407.8
20260507222725 20 326 6.4 8.0 0.00 0.00 0.00 38 3408.1
20260507222221 20 273 0.0 0.0 0.00 0.00 0.00 39 3408.1
20260507221718 19 117 0.0 0.0 0.00 0.00 0.00 39 3408.0
20260507221214 19 190 0.0 3.2 0.00 0.00 0.00 41 3407.9
20260507220711 18 216 3.2 4.8 0.00 0.00 0.00 41 3407.9
20260507220210 19 51 1.6 3.2 0.00 0.00 0.00 39 3407.8
20260507215705 19 318 6.4 12.9 0.00 0.00 0.00 38 3407.9
20260507215203 19 50 1.6 3.2 0.00 0.00 0.00 38 3407.7
20260507214700 19 52 0.0 3.2 0.00 0.00 0.00 39 3407.6
20260507214156 20 35 1.6 3.2 0.00 0.00 0.00 40 3407.6
20260507213652 20 355 3.2 4.8 0.00 0.00 0.00 40 3407.8
20260507213150 19 113 1.6 3.2 0.00 0.00 0.00 40 3407.7
20260507212646 19 29 1.6 3.2 0.00 0.00 0.00 39 3407.5
20260507212143 19 48 0.0 3.2 0.00 0.00 0.00 42 3407.8
20260507211640 18 323 0.0 3.2 0.00 0.00 0.00 42 3407.6
20260507211135 18 166 0.0 0.0 0.00 0.00 0.00 42 3407.7
20260507210633 18 65 0.0 0.0 0.00 0.00 0.00 42 3407.7
20260507210129 18 303 9.7 11.3 0.00 0.00 0.00 41 3407.8
20260507205626 18 53 0.0 0.0 0.00 0.00 0.00 44 3407.9
20260507205122 17 359 3.2 3.2 0.00 0.00 0.00 45 3407.8
20260507204619 17 163 6.4 8.0 0.00 0.00 0.00 43 3407.8
20260507204116 18 284 8.0 11.3 0.00 0.00 0.00 41 3407.7
20260507203614 18 166 0.0 3.2 0.00 0.00 0.00 43 3407.9
20260507203111 18 287 6.4 8.0 0.00 0.00 0.00 43 3408.1
20260507202607 18 110 0.0 0.0 0.00 0.00 0.00 45 3407.8
20260507202104 18 152 0.0 3.2 0.00 0.00 0.00 46 3407.8
20260507201559 18 89 1.6 4.8 0.00 0.00 0.00 43 3407.9
20260507201056 17 102 0.0 0.0 0.00 0.00 0.00 44 3408.0
20260507200551 17 302 4.8 8.0 0.00 0.00 0.00 40 3407.7
20260507200047 17 153 3.2 3.2 0.00 0.00 0.00 40 3408.0
20260507195545 17 350 3.2 4.8 0.00 0.00 0.00 42 3408.1
20260507195042 17 323 1.6 3.2 0.00 0.00 0.00 42 3408.1
20260507194538 18 357 4.8 8.0 0.00 0.00 0.00 44 3408.2
20260507194035 18 256 8.0 11.3 0.00 0.00 0.00 41 3408.2
20260507193532 18 241 4.8 4.8 0.00 0.00 0.00 40 3408.2
20260507193029 18 91 0.0 0.0 0.00 0.00 0.00 45 3408.1
20260507192525 18 313 4.8 4.8 0.00 0.00 0.00 41 3408.4
20260507192022 18 76 1.6 3.2 0.00 0.00 0.00 44 3408.3
20260507191517 18 313 11.3 12.9 0.00 0.00 0.00 41 3408.4
20260507191014 18 129 1.6 3.2 0.00 0.00 0.00 47 3408.4
20260507190512 17 58 1.6 3.2 0.00 0.00 0.00 45 3408.5
20260507190010 17 354 1.6 4.8 0.00 0.00 0.00 44 3408.4
20260507185508 17 67 0.0 0.0 0.00 0.00 0.00 44 3408.8
20260507185004 17 326 4.8 8.0 0.00 0.00 0.00 41 3408.5
20260507184503 17 340 6.4 8.0 0.00 0.00 0.00 44 3408.6
20260507184000 17 227 3.2 3.2 0.00 0.00 0.00 44 3408.4
20260507183456 17 10 6.4 8.0 0.00 0.00 0.00 46 3408.5
20260507182953 17 134 0.0 3.2 0.00 0.00 0.00 50 3408.4
20260507182449 17 88 0.0 3.2 0.00 0.00 0.00 43 3408.7
20260507181945 17 239 4.8 12.9 0.00 0.00 0.00 43 3408.7
20260507181442 17 301 14.5 24.1 0.00 0.00 0.00 43 3408.6
20260507180938 17 13 3.2 3.2 0.00 0.00 0.00 45 3408.6
20260507180435 16 293 6.4 8.0 0.00 0.00 0.00 43 3408.7
20260507175931 17 269 9.7 16.1 0.00 0.00 0.00 44 3408.9
20260507175428 17 4 8.0 11.3 0.00 0.00 0.00 42 3408.7
20260507174926 17 52 3.2 3.2 0.00 0.00 0.00 49 3408.7
20260507174423 16 216 1.6 3.2 0.00 0.00 0.00 47 3409.0
20260507173921 16 318 8.0 11.3 0.00 0.00 0.00 46 3408.9
20260507173417 16 330 3.2 4.8 0.00 0.00 0.00 45 3408.8
20260507172914 16 328 6.4 8.0 0.00 0.00 0.00 44 3409.0
20260507172411 17 100 0.0 3.2 0.00 0.00 0.00 44 3409.0
20260507171907 17 38 0.0 0.0 0.00 0.00 0.00 48 3409.0
20260507171403 17 269 4.8 4.8 0.00 0.00 0.00 46 3409.1
20260507170900 16 103 0.0 3.2 0.00 0.00 0.00 49 3409.2
20260507170357 16 110 1.6 3.2 0.00 0.00 0.00 55 3409.2
20260507165853 16 40 1.6 3.2 0.00 0.00 0.00 49 3409.3
20260507165349 16 108 0.0 0.0 0.00 0.00 0.00 48 3409.3
20260507164845 16 38 0.0 0.0 0.00 0.00 0.00 48 3409.3
20260507164342 16 136 6.4 8.0 0.00 0.00 0.00 49 3409.5
20260507163840 16 125 0.0 0.0 0.00 0.00 0.00 52 3409.5
20260507163337 16 203 4.8 8.0 0.00 0.00 0.00 53 3409.7
20260507162833 15 0 3.2 4.8 0.00 0.00 0.00 47 3409.7
20260507162329 15 241 6.4 8.0 0.00 0.00 0.00 51 3409.7
20260507161826 15 37 6.4 8.0 0.00 0.00 0.00 49 3409.8
20260507161322 15 95 1.6 3.2 0.00 0.00 0.00 52 3409.8
20260507160819 15 359 4.8 4.8 0.00 0.00 0.00 49 3409.9
20260507160315 15 19 3.2 4.8 0.00 0.00 0.00 51 3409.7
20260507155811 15 281 4.8 4.8 0.00 0.00 0.00 51 3409.7
20260507155307 15 9 3.2 4.8 0.00 0.00 0.00 48 3409.6
20260507154804 15 305 6.4 8.0 0.00 0.00 0.00 46 3409.5
20260507154302 14 278 3.2 3.2 0.00 0.00 0.00 47 3409.4
20260507153758 14 82 3.2 4.8 0.00 0.00 0.00 52 3409.7
20260507153254 15 336 3.2 4.8 0.00 0.00 0.00 52 3409.6
20260507152751 14 237 1.6 3.2 0.00 0.00 0.00 52 3409.8
20260507152248 15 272 6.4 8.0 0.00 0.00 0.00 53 3409.8
20260507151743 15 144 1.6 3.2 0.00 0.00 0.00 55 3409.7
20260507151240 14 129 0.0 0.0 0.00 0.00 0.00 59 3409.6
20260507150737 14 169 3.2 4.8 0.00 0.00 0.00 59 3409.7
20260507150234 14 326 3.2 4.8 0.00 0.00 0.00 59 3409.8
20260507145730 14 125 1.6 3.2 0.00 0.00 0.00 57 3409.6
20260507145226 13 120 0.0 0.0 0.00 0.00 0.00 61 3409.7
20260507144724 13 8 0.0 3.2 0.00 0.00 0.00 57 3409.6
20260507144221 13 70 0.0 0.0 0.00 0.00 0.00 60 3409.7
20260507143717 13 199 0.0 0.0 0.00 0.00 0.00 60 3409.8
20260507143215 13 65 1.6 3.2 0.00 0.00 0.00 57 3409.9
20260507142710 12 339 0.0 0.0 0.00 0.00 0.00 61 3409.9
20260507142207 12 355 1.6 3.2 0.00 0.00 0.00 61 3409.8
20260507141703 12 128 1.6 3.2 0.00 0.00 0.00 65 3409.7
20260507141201 12 131 0.0 0.0 0.00 0.00 0.00 64 3409.6
20260507140657 12 149 1.6 3.2 0.00 0.00 0.00 66 3409.5
20260507140154 12 141 0.0 0.0 0.00 0.00 0.00 65 3409.4
20260507135651 12 153 3.2 3.2 0.00 0.00 0.00 65 3409.6
20260507135149 12 264 4.8 4.8 0.00 0.00 0.00 65 3409.4
20260507134645 12 100 0.0 0.0 0.00 0.00 0.00 67 3409.4
20260507134141 11 135 0.0 0.0 0.00 0.00 0.00 71 3409.7
20260507133637 11 110 1.6 3.2 0.00 0.00 0.00 72 3409.5
20260507133135 11 146 0.0 0.0 0.00 0.00 0.00 71 3409.5
20260507132632 11 140 3.2 3.2 0.00 0.00 0.00 73 3409.8
20260507132128 11 50 0.0 0.0 0.00 0.00 0.00 74 3409.8
20260507131625 11 139 0.0 0.0 0.00 0.00 0.00 76 3409.7
20260507131122 10 135 1.6 3.2 0.00 0.00 0.00 77 3409.8
20260507130619 10 84 0.0 0.0 0.00 0.00 0.00 76 3409.6
20260507130117 10 100 0.0 0.0 0.00 0.00 0.00 78 3409.6
20260507125615 10 142 0.0 0.0 0.00 0.00 0.00 79 3409.6
20260507125112 10 123 0.0 0.0 0.00 0.00 0.00 80 3409.2
20260507124609 10 122 0.0 0.0 0.00 0.00 0.00 80 3409.3
20260507124107 9 116 0.0 0.0 0.00 0.00 0.00 81 3409.3
20260507123604 9 94 0.0 0.0 0.00 0.00 0.00 81 3409.2
20260507123101 9 105 0.0 0.0 0.00 0.00 0.00 83 3409.5
20260507122556 8 136 0.0 0.0 0.00 0.00 0.00 83 3409.3
20260507122052 8 125 0.0 0.0 0.00 0.00 0.00 86 3409.3
20260507121548 8 130 1.6 3.2 0.00 0.00 0.00 88 3409.1
20260507121044 8 98 0.0 0.0 0.00 0.00 0.00 91 3409.0
20260507120540 7 101 0.0 0.0 0.00 0.00 0.00 94 3409.2
20260507120038 7 132 0.0 3.2 0.00 0.00 0.00 96 3409.0
20260507115534 7 121 0.0 0.0 0.00 0.00 0.00 98 3409.2
20260507115029 7 121 0.0 0.0 0.00 0.00 0.00 98 3409.1
20260507114526 7 121 0.0 0.0 0.00 0.00 0.00 98 3409.3
20260507114023 7 121 0.0 0.0 0.00 0.00 0.00 99 3409.3
20260507113520 7 121 0.0 0.0 0.00 0.00 0.00 99 3409.1
20260507113017 7 121 0.0 0.0 0.00 0.00 0.00 99 3408.9
20260507112515 7 121 0.0 0.0 0.00 0.00 0.00 99 3409.1
20260507112012 7 121 0.0 0.0 0.00 0.00 0.00 99 3409.1
20260507111510 7 124 0.0 0.0 0.00 0.00 0.00 99 3409.2
20260507111005 7 124 0.0 0.0 0.00 0.00 0.00 99 3409.1
20260507110502 7 124 0.0 0.0 0.00 0.00 0.00 99 3408.9
20260507105958 7 124 0.0 0.0 0.00 0.00 0.00 99 3409.2
20260507105455 7 124 0.0 0.0 0.00 0.00 0.00 99 3408.9
20260507104951 7 124 0.0 0.0 0.00 0.00 0.00 99 3409.0
20260507104449 7 124 0.0 0.0 0.00 0.00 0.00 99 3409.1
20260507103944 7 124 0.0 0.0 0.00 0.00 0.00 99 3408.8
20260507103441 7 124 0.0 0.0 0.00 0.00 0.00 99 3409.0
20260507102937 7 118 0.0 0.0 0.00 0.00 0.00 99 3408.8
20260507102434 7 142 0.0 0.0 0.00 0.00 0.00 99 3408.9
20260507101931 7 135 0.0 0.0 0.00 0.00 0.00 99 3408.9
20260507101426 7 238 0.0 0.0 0.00 0.00 0.00 99 3408.7
20260507100923 7 44 1.6 3.2 0.00 0.00 0.00 99 3408.7
20260507100420 7 40 0.0 0.0 0.00 0.00 0.00 99 3408.7
20260507095918 7 47 0.0 0.0 0.00 0.00 0.00 99 3408.4
20260507095415 7 50 0.0 0.0 0.00 0.00 0.00 99 3408.5
20260507094912 7 4 3.2 3.2 0.00 0.00 0.00 99 3408.4
20260507094408 7 30 0.0 0.0 0.00 0.00 0.00 99 3408.3
20260507093905 8 41 0.0 0.0 0.00 0.00 0.00 99 3408.2
20260507093403 8 41 0.0 0.0 0.00 0.00 0.00 99 3408.3
20260507092902 8 48 0.0 0.0 0.00 0.00 0.00 99 3408.1
20260507092357 8 16 0.0 0.0 0.00 0.00 0.00 99 3408.4
20260507091854 8 349 0.0 3.2 0.00 0.00 0.00 99 3408.2
20260507091350 7 346 0.0 0.0 0.00 0.00 0.00 99 3408.2
20260507090846 7 346 0.0 0.0 0.00 0.00 0.00 99 3408.1
20260507090343 8 346 0.0 0.0 0.00 0.00 0.00 99 3408.1
20260507085840 8 346 0.0 0.0 0.00 0.00 0.00 99 3408.1
20260507085337 8 346 0.0 0.0 0.00 0.00 0.00 99 3408.1
20260507084834 8 346 0.0 0.0 0.00 0.00 0.00 99 3408.0
20260507084330 8 346 0.0 0.0 0.00 0.00 0.00 99 3408.1
20260507083828 8 346 0.0 0.0 0.00 0.00 0.00 99 3408.0
20260507083324 8 346 0.0 0.0 0.00 0.00 0.00 99 3407.8
20260507082820 8 346 0.0 0.0 0.00 0.00 0.00 99 3407.9
20260507082316 8 346 0.0 0.0 0.00 0.00 0.00 99 3407.9
20260507081814 8 346 0.0 0.0 0.00 0.00 0.00 99 3407.9
20260507081309 8 346 0.0 0.0 0.00 0.00 0.00 99 3407.9
20260507080806 8 346 0.0 0.0 0.00 0.00 0.00 99 3408.1
20260507080302 8 346 0.0 0.0 0.00 0.00 0.00 99 3408.0
20260507075757 8 346 0.0 0.0 0.00 0.00 0.00 98 3408.0
20260507075254 8 346 0.0 0.0 0.00 0.00 0.00 98 3408.2
20260507074750 8 346 0.0 0.0 0.00 0.00 0.00 98 3408.0
20260507074249 8 346 0.0 0.0 0.00 0.00 0.00 98 3408.0
20260507073745 8 346 0.0 0.0 0.00 0.00 0.00 98 3407.9
20260507073242 8 346 0.0 0.0 0.00 0.00 0.00 98 3408.1
20260507072740 8 346 0.0 0.0 0.00 0.00 0.00 98 3408.0
20260507072237 8 346 0.0 0.0 0.00 0.00 0.00 98 3408.1
20260507071734 8 346 0.0 0.0 0.00 0.00 0.00 98 3407.9
20260507071230 8 346 0.0 0.0 0.00 0.00 0.00 98 3408.1
20260507070727 8 346 0.0 0.0 0.00 0.00 0.00 97 3408.1
20260507070224 8 346 0.0 0.0 0.00 0.00 0.00 97 3407.8
20260507065721 8 346 0.0 0.0 0.00 0.00 0.00 97 3407.9
20260507065218 8 346 0.0 0.0 0.00 0.00 0.00 97 3408.0
20260507064715 8 346 0.0 0.0 0.00 0.00 0.00 97 3407.9
20260507064214 9 346 0.0 0.0 0.00 0.00 0.00 97 3407.9
20260507063711 9 346 0.0 0.0 0.00 0.00 0.00 97 3407.9
20260507063207 9 346 0.0 0.0 0.00 0.00 0.00 97 3407.9
20260507062704 9 346 0.0 0.0 0.00 0.00 0.00 97 3408.0
20260507062202 9 346 0.0 0.0 0.00 0.00 0.00 97 3408.1
20260507061659 9 346 0.0 0.0 0.00 0.00 0.00 96 3408.0
20260507061157 10 346 0.0 0.0 0.00 0.00 0.00 96 3408.0
20260507060655 10 346 0.0 0.0 0.00 0.00 0.00 96 3408.2
20260507060151 10 346 0.0 0.0 0.00 0.00 0.00 96 3408.0
20260507055647 10 346 0.0 0.0 0.00 0.00 0.00 96 3407.7
20260507055143 10 346 0.0 0.0 0.00 0.00 0.00 95 3407.7
20260507054639 10 346 0.0 0.0 0.00 0.00 0.00 95 3408.0
20260507054136 10 346 0.0 0.0 0.00 0.00 0.00 95 3408.1
20260507053634 10 346 0.0 0.0 0.00 0.00 0.00 95 3408.2
20260507053132 10 346 0.0 0.0 0.00 0.00 0.00 95 3408.4
20260507052630 10 346 0.0 0.0 0.00 0.00 0.00 95 3408.5
20260507052126 10 346 0.0 0.0 0.00 0.00 0.00 95 3408.3
20260507051624 10 346 0.0 0.0 0.00 0.00 0.00 95 3408.2
20260507051121 10 346 0.0 0.0 0.00 0.00 0.00 94 3408.3
20260507050618 10 346 0.0 0.0 0.00 0.00 0.00 94 3408.2
20260507050114 10 346 0.0 0.0 0.00 0.00 0.00 94 3408.4
20260507045611 10 346 0.0 0.0 0.00 0.99 0.99 94 3408.3
20260507045108 10 346 0.0 0.0 0.00 0.99 0.99 94 3408.3
20260507044604 10 346 0.0 0.0 0.00 0.99 0.99 94 3408.3
20260507044102 10 346 0.0 0.0 0.00 0.99 0.99 94 3408.4
20260507043557 10 346 0.0 0.0 0.00 0.99 0.99 94 3408.4
20260507043055 10 346 0.0 0.0 0.00 0.99 0.99 95 3408.4
20260507042550 10 346 0.0 0.0 0.00 0.99 0.99 95 3408.1
20260507042046 10 346 0.0 0.0 0.00 0.99 0.99 95 3408.5
20260507041543 10 346 0.0 0.0 0.00 0.99 0.99 96 3408.4
20260507041040 10 346 0.0 0.0 0.00 0.99 0.99 96 3407.9
20260507040537 10 346 0.0 0.0 0.00 0.99 0.99 95 3407.8
20260507040033 10 346 0.0 0.0 0.00 0.99 0.99 95 3407.7
20260507035529 10 346 0.0 0.0 0.00 0.99 0.99 95 3407.4
20260507035026 10 346 0.0 0.0 0.00 0.99 0.99 95 3407.6
20260507034522 10 346 0.0 0.0 0.00 0.99 0.99 95 3407.6
20260507034020 10 346 0.0 0.0 0.00 0.99 0.99 95 3407.6
20260507033518 10 346 0.0 0.0 0.00 0.99 0.99 95 3407.5
20260507033015 10 346 0.0 0.0 0.00 0.99 0.99 94 3407.8
20260507032512 10 346 0.0 0.0 0.00 0.99 0.99 94 3407.8
20260507032008 10 346 0.0 0.0 0.00 0.99 0.99 94 3407.9
20260507031504 10 346 0.0 0.0 0.00 0.99 0.99 94 3408.2
20260507031002 10 346 0.0 0.0 0.00 0.99 0.99 94 3408.2
20260507030459 10 346 0.0 0.0 0.00 0.99 0.99 93 3408.3
20260507025956 10 346 0.0 0.0 0.00 0.99 0.99 93 3408.4
20260507025453 10 346 0.0 0.0 0.00 0.99 0.99 93 3408.4
20260507024951 10 346 0.0 0.0 0.00 0.99 0.99 92 3408.2
20260507024448 10 346 0.0 0.0 0.00 0.99 0.99 92 3408.4
20260507023944 10 346 0.0 0.0 0.00 0.99 0.99 91 3408.4
20260507023440 11 346 0.0 0.0 0.00 0.99 0.99 91 3408.6
20260507022938 11 346 0.0 0.0 0.00 0.99 0.99 90 3408.3
20260507022435 11 346 0.0 0.0 0.00 0.99 0.99 90 3408.5
20260507021930 11 346 0.0 0.0 0.00 0.99 0.99 90 3408.3
20260507021426 11 346 0.0 0.0 0.00 0.99 0.99 90 3408.2
20260507020924 11 346 0.0 0.0 0.00 0.99 0.99 89 3408.5
20260507020420 11 346 0.0 0.0 0.00 0.99 0.99 88 3408.4
20260507015917 11 346 0.0 0.0 0.00 0.99 0.99 88 3408.6
20260507015415 11 346 0.0 0.0 0.00 0.99 0.99 87 3408.5
20260507014912 11 346 0.0 0.0 0.00 0.99 0.99 87 3408.2
20260507014409 11 345 0.0 0.0 0.00 0.99 0.99 86 3408.1